Observations for Trim Market St
| Time | AQI | Temp °C | Hum % | Pres Pa | CO μg/m³ | H₂S μg/m³ | NO μg/m³ | NO₂ μg/m³ | O₃ μg/m³ | SO₂ μg/m³ | PM1 μg/m³ | PM2.5 μg/m³ | PM10 μg/m³ |
|---|---|---|---|---|---|---|---|---|---|---|---|---|---|
| Tuesday 25 August 2026 | |||||||||||||
| 17:32 | 3 | 21.4 | 59 | 57,667 | 0 | 0 | 1.17 | 21.52 | 65.55 | 0 | 4.99 | 6.57 | 8.91 |
| 17:27 | 3 | 21.5 | 59 | 57,670 | 0 | 0 | 0.96 | 25.15 | 67.22 | 0 | 4.99 | 8.09 | 10.99 |
| 17:23 | 3 | 21.5 | 59 | 57,677 | 0 | 0.03 | 1.12 | 24.78 | 64.33 | 0 | 6.41 | 10.11 | 14.46 |
| 17:19 | 3 | 21.6 | 58 | 57,695 | 0 | 1.45 | 1.2 | 28.11 | 75.55 | 0 | 4.28 | 6.11 | 8.22 |
| 17:17 | 3 | 21.7 | 58 | 57,698 | 0 | 0.37 | 1.09 | 20.92 | 68.15 | 0 | 5.7 | 8.63 | 13.1 |
| 17:13 | 3 | 21.8 | 58 | 57,702 | 0 | 4.36 | 1.36 | 32.47 | 69.24 | 0 | 4.99 | 7.14 | 9.62 |
| 17:12 | 3 | 21.8 | 58 | 57,708 | 0 | 5.07 | 1.36 | 40.22 | 68.53 | 0 | 6.41 | 11.17 | 15.91 |
| 17:11 | 3 | 21.8 | 58 | 57,714 | 0 | 6.63 | 1.3 | 56.44 | 60.65 | 0 | 5.7 | 7.16 | 9.63 |
| 17:10 | 3 | 21.8 | 58 | 57,720 | 0 | 4.49 | 1.26 | 40.22 | 68.06 | 0 | 4.28 | 7.17 | 11.73 |
| 17:09 | 3 | 21.9 | 57 | 57,725 | 0 | 4.33 | 1.07 | 34.63 | 72 | 0 | 4.99 | 7.18 | 9.63 |
| 17:08 | 3 | 21.9 | 57 | 57,734 | 0 | 3.11 | 0.93 | 30.13 | 70.02 | 0 | 4.99 | 8.2 | 12.45 |
| 17:07 | 3 | 21.9 | 57 | 57,738 | 0 | 4.06 | 0.88 | 31.25 | 68.97 | 0 | 4.99 | 8.71 | 12.45 |
| 17:06 | 3 | 22 | 57 | 57,739 | 0 | 5.01 | 0.9 | 34.53 | 76.88 | 0 | 4.99 | 8.21 | 13.17 |
| 17:05 | 3 | 22 | 57 | 57,739 | 0 | 3.03 | 0.96 | 27.72 | 69.67 | 0 | 5.7 | 7.71 | 10.35 |
| 17:04 | 3 | 22.1 | 57 | 57,734 | 0 | 4.27 | 0.95 | 32.58 | 72.75 | 0 | 4.99 | 7.22 | 11.06 |
| 17:03 | 3 | 22.1 | 56 | 57,726 | 0 | 6.23 | 1.08 | 35.54 | 82.48 | 0 | 5.7 | 9.25 | 12.48 |
| 17:02 | 3 | 22.1 | 56 | 57,720 | 0 | 6.44 | 1.16 | 39.21 | 70.58 | 0 | 4.28 | 6.73 | 10.36 |
| 17:01 | 3 | 22.2 | 56 | 57,707 | 0 | 7.63 | 1.27 | 47.84 | 76.12 | 0 | 7.13 | 9.79 | 13.92 |
| 17:00 | 3 | 22.2 | 56 | 57,687 | 0.05 | 7.92 | 1.3 | 51.91 | 63.5 | 0 | 7.13 | 8.79 | 13.22 |
| 16:58 | 3 | 22.3 | 55 | 57,654 | 0.18 | 9.77 | 1.24 | 52.72 | 81.21 | 0 | 6.41 | 8.33 | 11.83 |